Cape Town Hub Information

GPS Position: 3358"1'S / 1836"3'E Runways: 01 / 19 and 16 / 34
Fuel available: 100 and Jet Magnetic Variation: 25W
Elevation: 151ft Approaches: ILS LOC / DME
Maximum Runway Length: 10502 x 200ft Hours of Operation: 24 Hours


FACT 010000Z 22007KT 190V250 4000 BR BKN004 18/17 Q1012 NOSIG

Cape Town Domestic and Regional Flights

Cape Town International Flights